When you browse on this site, cookies collect data to enhance your experience and personalize the content and advertising you see.
Visit our Privacy Policy to learn more. By continuing to use the site, you agree to this use of cookies and data.
  • In Österreich
  • Länderverzeichnis
  • Für 7 Tage
  • Wassertemperatur
  • Satellitenkarten
  • Wetterkarte
  • News
  • Widgets
  • user-avatar
    Anmelden

    Stündliche Wetter Berat

    Heute, 21 März, Donnerstag

    Zeit Temperatur Niederschläge Wind Luftdruck Luftfeuchtigkeit
    00:00 +14°C° 0 mm 3 m/S 750 mmHg 69%
    01:00 +13°C° 0 mm 3 m/S 750 mmHg 70%
    02:00 +13°C° 0 mm 3 m/S 750 mmHg 71%
    03:00 +12°C° 0 mm 3 m/S 750 mmHg 71%
    04:00 +12°C° 0 mm 3 m/S 750 mmHg 72%
    05:00 +12°C° 0 mm 3 m/S 751 mmHg 71%
    06:00 +12°C° 0 mm 3 m/S 751 mmHg 70%
    07:00 +13°C° 0 mm 4 m/S 751 mmHg 68%
    08:00 +15°C° 0 mm 4 m/S 751 mmHg 61%
    09:00 +17°C° 0 mm 4 m/S 751 mmHg 55%
    10:00 +19°C° 0 mm 5 m/S 752 mmHg 48%
    11:00 +20°C° 0 mm 5 m/S 751 mmHg 47%
    12:00 +20°C° 0 mm 5 m/S 751 mmHg 45%
    13:00 +21°C° 0 mm 5 m/S 751 mmHg 43%
    14:00 +20°C° 0 mm 5 m/S 751 mmHg 44%
    15:00 +20°C° 0 mm 5 m/S 751 mmHg 45%
    16:00 +19°C° 0 mm 5 m/S 750 mmHg 46%
    17:00 +18°C° 0 mm 4 m/S 751 mmHg 51%
    18:00 +15°C° 0 mm 4 m/S 751 mmHg 56%
    19:00 +13°C° 0 mm 3 m/S 751 mmHg 61%
    20:00 +13°C° 0 mm 3 m/S 751 mmHg 62%
    21:00 +12°C° 0 mm 3 m/S 752 mmHg 64%
    22:00 +12°C° 0 mm 3 m/S 752 mmHg 66%
    23:00 +12°C° 0 mm 3 m/S 752 mmHg 68%

    Morgen, 22 März, Freitag

    Zeit Temperatur Niederschläge Wind Luftdruck Luftfeuchtigkeit
    00:00 +11°C° 0 mm 3 m/S 752 mmHg 69%
    01:00 +11°C° 0 mm 3 m/S 752 mmHg 70%
    02:00 +11°C° 0 mm 3 m/S 752 mmHg 71%
    03:00 +10°C° 0 mm 3 m/S 752 mmHg 72%
    04:00 +10°C° 0 mm 3 m/S 752 mmHg 73%
    05:00 +10°C° 0 mm 3 m/S 752 mmHg 73%
    06:00 +11°C° 0 mm 3 m/S 752 mmHg 72%
    07:00 +11°C° 0 mm 3 m/S 752 mmHg 72%
    08:00 +13°C° 0 mm 3 m/S 752 mmHg 63%
    09:00 +16°C° 0 mm 3 m/S 752 mmHg 55%
    10:00 +18°C° 0 mm 3 m/S 752 mmHg 46%
    11:00 +19°C° 0 mm 3 m/S 752 mmHg 43%
    12:00 +20°C° 0 mm 3 m/S 751 mmHg 40%
    13:00 +21°C° 0 mm 3 m/S 751 mmHg 36%
    14:00 +21°C° 0 mm 2 m/S 751 mmHg 37%
    15:00 +21°C° 0 mm 2 m/S 750 mmHg 38%
    16:00 +20°C° 0 mm 2 m/S 750 mmHg 38%
    17:00 +18°C° 0 mm 2 m/S 750 mmHg 45%
    18:00 +17°C° 0 mm 2 m/S 750 mmHg 51%
    19:00 +15°C° 0 mm 2 m/S 750 mmHg 58%
    20:00 +14°C° 0 mm 2 m/S 750 mmHg 59%
    21:00 +14°C° 0 mm 2 m/S 750 mmHg 60%
    22:00 +13°C° 0 mm 2 m/S 750 mmHg 61%
    23:00 +13°C° 0 mm 2 m/S 750 mmHg 62%

    übermorgen, 23 März, Samstag

    Zeit Temperatur Niederschläge Wind Luftdruck Luftfeuchtigkeit
    00:00 +12°C° 0 mm 2 m/S 750 mmHg 63%
    01:00 +12°C° 0 mm 2 m/S 750 mmHg 64%
    02:00 +12°C° 0 mm 2 m/S 750 mmHg 65%
    03:00 +12°C° 0 mm 2 m/S 750 mmHg 66%
    04:00 +10°C° 0 mm 2 m/S 749 mmHg 67%
    05:00 +12°C° 0 mm 2 m/S 749 mmHg 66%
    06:00 +12°C° 0 mm 2 m/S 749 mmHg 65%
    07:00 +13°C° 0 mm 2 m/S 750 mmHg 65%
    08:00 +15°C° 0 mm 2 m/S 749 mmHg 57%
    09:00 +17°C° 0 mm 2 m/S 749 mmHg 49%
    10:00 +19°C° 0 mm 2 m/S 749 mmHg 41%
    11:00 +20°C° 0 mm 2 m/S 749 mmHg 39%
    12:00 +21°C° 0 mm 2 m/S 749 mmHg 37%
    13:00 +23°C° 0 mm 2 m/S 748 mmHg 35%
    14:00 +21°C° 0 mm 2 m/S 748 mmHg 37%
    15:00 +21°C° 0 mm 2 m/S 748 mmHg 39%
    16:00 +21°C° 0 mm 3 m/S 747 mmHg 41%
    17:00 +19°C° 0 mm 2 m/S 748 mmHg 49%
    18:00 +18°C° 0 mm 1 m/S 748 mmHg 56%
    19:00 +14°C° 0 mm 0 m/S 748 mmHg 64%
    20:00 +14°C° 0 mm 1 m/S 748 mmHg 64%
    21:00 +14°C° 0 mm 1 m/S 748 mmHg 64%
    22:00 +14°C° 0 mm 1 m/S 749 mmHg 64%
    23:00 +13°C° 0 mm 1 m/S 749 mmHg 62%

    24 März, Sonntag

    Zeit Temperatur Niederschläge Wind Luftdruck Luftfeuchtigkeit
    00:00 +13°C° 0 mm 1 m/S 749 mmHg 61%
    01:00 +13°C° 0 mm 2 m/S 749 mmHg 60%
    02:00 +13°C° 0 mm 2 m/S 749 mmHg 60%
    03:00 +12°C° 0 mm 2 m/S 748 mmHg 60%
    04:00 +12°C° 0 mm 2 m/S 748 mmHg 59%
    05:00 +13°C° 0 mm 2 m/S 749 mmHg 60%
    06:00 +13°C° 0 mm 2 m/S 749 mmHg 60%
    07:00 +14°C° 0 mm 2 m/S 749 mmHg 60%
    08:00 +16°C° 0 mm 1 m/S 749 mmHg 52%
    09:00 +19°C° 0 mm 1 m/S 749 mmHg 44%
    10:00 +22°C° 0 mm 1 m/S 749 mmHg 35%
    11:00 +22°C° 0 mm 1 m/S 749 mmHg 34%
    12:00 +23°C° 0 mm 2 m/S 748 mmHg 32%
    13:00 +22°C° 0 mm 3 m/S 748 mmHg 30%
    14:00 +22°C° 0 mm 3 m/S 748 mmHg 34%
    15:00 +21°C° 0 mm 3 m/S 748 mmHg 38%
    16:00 +20°C° 0 mm 3 m/S 747 mmHg 41%
    17:00 +18°C° 0 mm 2 m/S 747 mmHg 49%
    18:00 +16°C° 0 mm 1 m/S 747 mmHg 57%
    19:00 +14°C° 0 mm 1 m/S 747 mmHg 65%
    20:00 +14°C° 0 mm 1 m/S 747 mmHg 65%
    21:00 +13°C° 0 mm 1 m/S 748 mmHg 64%
    22:00 +13°C° 0 mm 1 m/S 748 mmHg 64%
    23:00 +12°C° 0 mm 0 m/S 747 mmHg 63%

    25 März, Montag

    Zeit Temperatur Niederschläge Wind Luftdruck Luftfeuchtigkeit
    00:00 +12°C° 0 mm 0 m/S 747 mmHg 62%
    01:00 +11°C° 0 mm 0 m/S 747 mmHg 61%
    02:00 +11°C° 0 mm 0 m/S 747 mmHg 62%
    03:00 +11°C° 0 mm 0 m/S 747 mmHg 62%
    04:00 +10°C° 0 mm 0 m/S 747 mmHg 62%
    05:00 +11°C° 0 mm 0 m/S 747 mmHg 61%
    06:00 +12°C° 0 mm 0 m/S 747 mmHg 59%
    07:00 +14°C° 0 mm 1 m/S 747 mmHg 58%
    08:00 +15°C° 0 mm 1 m/S 747 mmHg 52%
    09:00 +18°C° 0 mm 1 m/S 747 mmHg 46%
    10:00 +19°C° 0 mm 2 m/S 747 mmHg 40%
    11:00 +19°C° 0 mm 2 m/S 746 mmHg 40%
    12:00 +20°C° 0 mm 3 m/S 746 mmHg 40%
    13:00 +20°C° 0 mm 3 m/S 745 mmHg 40%
    14:00 +20°C° 0 mm 3 m/S 745 mmHg 45%
    15:00 +19°C° 0 mm 3 m/S 745 mmHg 51%
    16:00 +18°C° 0 mm 3 m/S 744 mmHg 56%
    17:00 +16°C° 0 mm 2 m/S 744 mmHg 66%
    18:00 +15°C° 0 mm 1 m/S 744 mmHg 76%
    19:00 +13°C° 0 mm 1 m/S 744 mmHg 86%
    20:00 +12°C° 0 mm 1 m/S 744 mmHg 87%
    21:00 +11°C° 0 mm 0 m/S 745 mmHg 87%
    22:00 +11°C° 0 mm 0 m/S 745 mmHg 88%
    23:00 +11°C° 0 mm 0 m/S 745 mmHg 87%

    26 März, Dienstag

    Zeit Temperatur Niederschläge Wind Luftdruck Luftfeuchtigkeit
    00:00 +10°C° 0 mm 0 m/S 745 mmHg 85%
    01:00 +10°C° 0 mm 0 m/S 744 mmHg 84%
    02:00 +10°C° 0 mm 0 m/S 744 mmHg 83%
    03:00 +10°C° 0 mm 0 m/S 744 mmHg 82%
    04:00 +11°C° 0 mm 1 m/S 744 mmHg 81%
    05:00 +11°C° 0 mm 1 m/S 744 mmHg 78%
    06:00 +12°C° 0 mm 1 m/S 744 mmHg 75%
    07:00 +13°C° 0 mm 1 m/S 745 mmHg 71%
    08:00 +15°C° 0 mm 1 m/S 745 mmHg 64%
    09:00 +16°C° 0 mm 1 m/S 745 mmHg 57%
    10:00 +19°C° 0 mm 1 m/S 745 mmHg 49%
    11:00 +18°C° 0.6 mm 2 m/S 744 mmHg 50%
    12:00 +18°C° 0.6 mm 4 m/S 744 mmHg 51%
    13:00 +17°C° 0.6 mm 5 m/S 743 mmHg 52%
    14:00 +16°C° 0.2 mm 5 m/S 743 mmHg 51%
    15:00 +15°C° 0.2 mm 6 m/S 743 mmHg 50%
    16:00 +15°C° 0.2 mm 6 m/S 743 mmHg 48%
    17:00 +13°C° 0 mm 4 m/S 743 mmHg 55%
    18:00 +11°C° 0 mm 3 m/S 743 mmHg 62%
    19:00 +10°C° 0 mm 2 m/S 744 mmHg 69%
    20:00 +10°C° 0 mm 1 m/S 744 mmHg 70%
    21:00 +10°C° 0 mm 1 m/S 744 mmHg 72%
    22:00 +10°C° 0 mm 1 m/S 745 mmHg 74%
    23:00 +9°C° 0 mm 1 m/S 745 mmHg 73%
    Mehr zeigen